Вернуться в каталог

COSMOS 2131

АктивенВоенныеLEO
NORAD 21106·PAYLOAD·🇷🇺 Russia

Запущен Feb 12, 1991 с Plesetsk Cosmodrome

Loading…

Ближайшие Пролёты (ближайшие 24 часа)

TLE

СвежийSource: Space-Track

Эпоха: Sep 14, 2026, 11:32 UTC

1 21106U 91009G   26257.48084590 -.00000026  00000-0 -56330-4 0  9990
2 21106  74.0268 270.1106 0051573  29.9087  42.0574 12.58965606635501

Отслеживайте COSMOS 2131 в реальном времени с AllMySat

Download on the App Store